<?xml version="1.0" encoding="UTF-8" standalone="no" ?>
<gpx xmlns="http://www.topografix.com/GPX/1/1" xmlns:xsi="http://www.w3.org/2001/XMLSchema-instance" xsi:schemaLocation="http://www.topografix.com/GPX/1/1 http://www.topografix.com/GPX/1/1/gpx.xsd" version="1.1" creator="VisuGPX - https://www.visugpx.com">
  <metadata>
    <name>tour de bretagne</name>
    <desc><![CDATA[tracé 2008]]></desc>
  </metadata>
  <trk>
    <name><![CDATA[fusion]]></name>
    <trkseg>
      <trkpt lat="48.45625" lon="-2.03846">
        <ele>-1000</ele>
        <time>2007-05-30T14:08:43Z</time>
      </trkpt>
      <trkpt lat="48.45669" lon="-2.03787">
        <ele>-1000</ele>
        <time>2007-05-30T14:08:43Z</time>
      </trkpt>
      <trkpt lat="48.45778" lon="-2.03776">
        <ele>-1000</ele>
        <time>2007-05-30T14:08:43Z</time>
      </trkpt>
      <trkpt lat="48.45941" lon="-2.03585">
        <ele>-1000</ele>
        <time>2007-05-30T14:08:43Z</time>
      </trkpt>
      <trkpt lat="48.46105" lon="-2.03342">
        <ele>-1000</ele>
        <time>2007-05-30T14:08:43Z</time>
      </trkpt>
      <trkpt lat="48.46135" lon="-2.03278">
        <ele>-1000</ele>
        <time>2007-05-30T14:08:43Z</time>
      </trkpt>
      <trkpt lat="48.4617" lon="-2.02969">
        <ele>-1000</ele>
        <time>2007-05-30T14:08:43Z</time>
      </trkpt>
      <trkpt lat="48.46192" lon="-2.02929">
        <ele>-1000</ele>
        <time>2007-05-30T14:08:43Z</time>
      </trkpt>
      <trkpt lat="48.46288" lon="-2.02888">
        <ele>-1000</ele>
        <time>2007-05-30T14:08:43Z</time>
      </trkpt>
      <trkpt lat="48.46335" lon="-2.02845">
        <ele>-1000</ele>
        <time>2007-05-30T14:08:43Z</time>
      </trkpt>
      <trkpt lat="48.46394" lon="-2.0275">
        <ele>-1000</ele>
        <time>2007-05-30T14:08:43Z</time>
      </trkpt>
      <trkpt lat="48.46478" lon="-2.02707">
        <ele>-1000</ele>
        <time>2007-05-30T14:08:43Z</time>
      </trkpt>
      <trkpt lat="48.46669" lon="-2.02739">
        <ele>-1000</ele>
        <time>2007-05-30T14:08:43Z</time>
      </trkpt>
      <trkpt lat="48.46714" lon="-2.02729">
        <ele>-1000</ele>
        <time>2007-05-30T14:08:43Z</time>
      </trkpt>
      <trkpt lat="48.46754" lon="-2.02704">
        <ele>-1000</ele>
        <time>2007-05-30T14:08:43Z</time>
      </trkpt>
      <trkpt lat="48.4688" lon="-2.02524">
        <ele>-1000</ele>
        <time>2007-05-30T14:08:43Z</time>
      </trkpt>
      <trkpt lat="48.46983" lon="-2.02175">
        <ele>-1000</ele>
        <time>2007-05-30T14:08:43Z</time>
      </trkpt>
      <trkpt lat="48.46994" lon="-2.01947">
        <ele>-1000</ele>
        <time>2007-05-30T14:08:43Z</time>
      </trkpt>
      <trkpt lat="48.47058" lon="-2.01256">
        <ele>-1000</ele>
        <time>2007-05-30T14:08:43Z</time>
      </trkpt>
      <trkpt lat="48.47089" lon="-2.01104">
        <ele>-1000</ele>
        <time>2007-05-30T14:08:43Z</time>
      </trkpt>
      <trkpt lat="48.47128" lon="-2.01029">
        <ele>-1000</ele>
        <time>2007-05-30T14:08:43Z</time>
      </trkpt>
      <trkpt lat="48.47358" lon="-2.00817">
        <ele>-1000</ele>
        <time>2007-05-30T14:08:43Z</time>
      </trkpt>
      <trkpt lat="48.47487" lon="-2.00799">
        <ele>-1000</ele>
        <time>2007-05-30T14:08:43Z</time>
      </trkpt>
      <trkpt lat="48.47549" lon="-2.00764">
        <ele>-1000</ele>
        <time>2007-05-30T14:08:43Z</time>
      </trkpt>
      <trkpt lat="48.47585" lon="-2.0071">
        <ele>-1000</ele>
        <time>2007-05-30T14:08:43Z</time>
      </trkpt>
      <trkpt lat="48.4767" lon="-2.00663">
        <ele>-1000</ele>
        <time>2007-05-30T14:08:43Z</time>
      </trkpt>
      <trkpt lat="48.47747" lon="-2.00675">
        <ele>-1000</ele>
        <time>2007-05-30T14:08:43Z</time>
      </trkpt>
      <trkpt lat="48.47804" lon="-2.00697">
        <ele>-1000</ele>
        <time>2007-05-30T14:08:43Z</time>
      </trkpt>
      <trkpt lat="48.47958" lon="-2.00703">
        <ele>-1000</ele>
        <time>2007-05-30T14:08:43Z</time>
      </trkpt>
      <trkpt lat="48.48051" lon="-2.00669">
        <ele>-1000</ele>
        <time>2007-05-30T14:08:43Z</time>
      </trkpt>
      <trkpt lat="48.48133" lon="-2.00658">
        <ele>-1000</ele>
        <time>2007-05-30T14:08:43Z</time>
      </trkpt>
      <trkpt lat="48.48246" lon="-2.00589">
        <ele>-1000</ele>
        <time>2007-05-30T14:08:43Z</time>
      </trkpt>
      <trkpt lat="48.48259" lon="-2.00536">
        <ele>-1000</ele>
        <time>2007-05-30T14:08:43Z</time>
      </trkpt>
      <trkpt lat="48.48267" lon="-2.00423">
        <ele>-1000</ele>
        <time>2007-05-30T14:08:43Z</time>
      </trkpt>
      <trkpt lat="48.48296" lon="-2.00231">
        <ele>-1000</ele>
        <time>2007-05-30T14:08:43Z</time>
      </trkpt>
      <trkpt lat="48.48401" lon="-1.99956">
        <ele>-1000</ele>
        <time>2007-05-30T14:08:43Z</time>
      </trkpt>
      <trkpt lat="48.4844" lon="-1.99894">
        <ele>-1000</ele>
        <time>2007-05-30T14:08:43Z</time>
      </trkpt>
      <trkpt lat="48.48502" lon="-1.99879">
        <ele>-1000</ele>
        <time>2007-05-30T14:08:43Z</time>
      </trkpt>
      <trkpt lat="48.48553" lon="-1.99923">
        <ele>-1000</ele>
        <time>2007-05-30T14:08:43Z</time>
      </trkpt>
      <trkpt lat="48.48665" lon="-2.0014">
        <ele>-1000</ele>
        <time>2007-05-30T14:08:43Z</time>
      </trkpt>
      <trkpt lat="48.48684" lon="-2.00223">
        <ele>-1000</ele>
        <time>2007-05-30T14:08:43Z</time>
      </trkpt>
      <trkpt lat="48.48684" lon="-2.00297">
        <ele>-1000</ele>
        <time>2007-05-30T14:08:43Z</time>
      </trkpt>
      <trkpt lat="48.48718" lon="-2.00388">
        <ele>-1000</ele>
        <time>2007-05-30T14:08:43Z</time>
      </trkpt>
      <trkpt lat="48.48777" lon="-2.00458">
        <ele>-1000</ele>
        <time>2007-05-30T14:08:43Z</time>
      </trkpt>
      <trkpt lat="48.4883" lon="-2.00496">
        <ele>-1000</ele>
        <time>2007-05-30T14:08:43Z</time>
      </trkpt>
      <trkpt lat="48.48874" lon="-2.00497">
        <ele>-1000</ele>
        <time>2007-05-30T14:08:43Z</time>
      </trkpt>
      <trkpt lat="48.48917" lon="-2.0054">
        <ele>-1000</ele>
        <time>2007-05-30T14:08:43Z</time>
      </trkpt>
      <trkpt lat="48.48978" lon="-2.0054">
        <ele>-1000</ele>
        <time>2007-05-30T14:08:43Z</time>
      </trkpt>
      <trkpt lat="48.49132" lon="-2.00392">
        <ele>-1000</ele>
        <time>2007-05-30T14:08:43Z</time>
      </trkpt>
      <trkpt lat="48.49143" lon="-2.00346">
        <ele>-1000</ele>
        <time>2007-05-30T14:08:43Z</time>
      </trkpt>
      <trkpt lat="48.49207" lon="-2.0033">
        <ele>-1000</ele>
        <time>2007-05-30T14:08:43Z</time>
      </trkpt>
      <trkpt lat="48.49252" lon="-2.00273">
        <ele>-1000</ele>
        <time>2007-05-30T14:08:43Z</time>
      </trkpt>
      <trkpt lat="48.49259" lon="-2.00211">
        <ele>-1000</ele>
        <time>2007-05-30T14:08:43Z</time>
      </trkpt>
      <trkpt lat="48.49329" lon="-2.00195">
        <ele>-1000</ele>
        <time>2007-05-30T14:08:43Z</time>
      </trkpt>
      <trkpt lat="48.4942" lon="-2.00136">
        <ele>-1000</ele>
        <time>2007-05-30T14:08:43Z</time>
      </trkpt>
      <trkpt lat="48.49458" lon="-2.00042">
        <ele>-1000</ele>
        <time>2007-05-30T14:08:43Z</time>
      </trkpt>
      <trkpt lat="48.49472" lon="-1.99981">
        <ele>-1000</ele>
        <time>2007-05-30T14:08:43Z</time>
      </trkpt>
      <trkpt lat="48.49457" lon="-1.99873">
        <ele>-1000</ele>
        <time>2007-05-30T14:08:43Z</time>
      </trkpt>
      <trkpt lat="48.49435" lon="-1.99822">
        <ele>-1000</ele>
        <time>2007-05-30T14:08:43Z</time>
      </trkpt>
      <trkpt lat="48.49411" lon="-1.99738">
        <ele>-1000</ele>
        <time>2007-05-30T14:08:43Z</time>
      </trkpt>
      <trkpt lat="48.49413" lon="-1.99662">
        <ele>-1000</ele>
        <time>2007-05-30T14:08:43Z</time>
      </trkpt>
      <trkpt lat="48.49429" lon="-1.99563">
        <ele>-1000</ele>
        <time>2007-05-30T14:08:43Z</time>
      </trkpt>
      <trkpt lat="48.49468" lon="-1.99498">
        <ele>-1000</ele>
        <time>2007-05-30T14:08:43Z</time>
      </trkpt>
      <trkpt lat="48.49588" lon="-1.99498">
        <ele>-1000</ele>
        <time>2007-05-30T14:08:43Z</time>
      </trkpt>
      <trkpt lat="48.49626" lon="-1.9952">
        <ele>-1000</ele>
        <time>2007-05-30T14:08:43Z</time>
      </trkpt>
      <trkpt lat="48.49642" lon="-1.99652">
        <ele>-1000</ele>
        <time>2007-05-30T14:08:43Z</time>
      </trkpt>
      <trkpt lat="48.49674" lon="-1.99738">
        <ele>-1000</ele>
        <time>2007-05-30T14:08:43Z</time>
      </trkpt>
      <trkpt lat="48.49676" lon="-2.00234">
        <ele>-1000</ele>
        <time>2007-05-30T14:08:43Z</time>
      </trkpt>
      <trkpt lat="48.49772" lon="-2.00135">
        <ele>-1000</ele>
        <time>2007-05-30T14:08:43Z</time>
      </trkpt>
    </trkseg>
  </trk>
</gpx>